• In Italy
  • List of Countries
  • For 7 days
  • Water Temperature
  • Satellite Maps
  • Weather Map
  • Weather Widgets
  • user-avatar
    Login

    Hourly Weather Hadera

    Today, 17 January, Wednesday

    Time Temperature Precipitation Wind Pressure Humidity
    00:00 +8°C° 0.2 mm 4 mps 719 mmHg 84%
    01:00 +8°C° 0.2 mm 5 mps 719 mmHg 84%
    02:00 +9°C° 0 mm 5 mps 718 mmHg 86%
    03:00 +9°C° 0.8 mm 6 mps 718 mmHg 87%
    04:00 +9°C° 0.8 mm 6 mps 717 mmHg 88%
    05:00 +9°C° 0.8 mm 6 mps 717 mmHg 89%
    06:00 +9°C° 0.4 mm 6 mps 717 mmHg 88%
    07:00 +9°C° 0.4 mm 6 mps 717 mmHg 86%
    08:00 +9°C° 0.4 mm 5 mps 717 mmHg 85%
    09:00 +10°C° 0.3 mm 6 mps 717 mmHg 82%
    10:00 +10°C° 0.3 mm 6 mps 717 mmHg 78%
    11:00 +11°C° 0.3 mm 6 mps 717 mmHg 75%
    12:00 +11°C° 0.2 mm 7 mps 717 mmHg 75%
    13:00 +11°C° 0.2 mm 7 mps 716 mmHg 74%
    14:00 +11°C° 0.2 mm 7 mps 716 mmHg 74%
    15:00 +11°C° 0.2 mm 7 mps 716 mmHg 77%
    16:00 +11°C° 0.2 mm 7 mps 716 mmHg 80%
    17:00 +10°C° 0.2 mm 6 mps 716 mmHg 82%
    18:00 +10°C° 0.2 mm 7 mps 716 mmHg 83%
    19:00 +10°C° 0.2 mm 7 mps 716 mmHg 85%
    20:00 +10°C° 0.2 mm 7 mps 716 mmHg 86%
    21:00 +10°C° 0.2 mm 7 mps 715 mmHg 86%
    22:00 +10°C° 0.2 mm 7 mps 715 mmHg 85%
    23:00 +10°C° 0.2 mm 7 mps 715 mmHg 85%

    Tomorrow, 18 January, Thursday

    Time Temperature Precipitation Wind Pressure Humidity
    00:00 +10°C° 0.4 mm 8 mps 715 mmHg 86%
    01:00 +10°C° 0.4 mm 9 mps 715 mmHg 86%
    02:00 +11°C° 0.4 mm 9 mps 714 mmHg 87%
    03:00 +11°C° 0.6 mm 10 mps 714 mmHg 87%
    04:00 +11°C° 0.6 mm 10 mps 713 mmHg 88%
    05:00 +11°C° 0.6 mm 10 mps 713 mmHg 88%
    06:00 +11°C° 0.6 mm 11 mps 712 mmHg 87%
    07:00 +11°C° 0.6 mm 11 mps 712 mmHg 87%
    08:00 +10°C° 0.6 mm 12 mps 711 mmHg 86%
    09:00 +12°C° 0.5 mm 12 mps 711 mmHg 83%
    10:00 +12°C° 0.5 mm 13 mps 711 mmHg 80%
    11:00 +13°C° 0.5 mm 14 mps 710 mmHg 77%
    12:00 +12°C° 1 mm 14 mps 709 mmHg 79%
    13:00 +10°C° 1 mm 14 mps 708 mmHg 81%
    14:00 +10°C° 1 mm 14 mps 707 mmHg 83%
    15:00 +9°C° 0.5 mm 15 mps 707 mmHg 81%
    16:00 +7°C° 0.5 mm 16 mps 707 mmHg 78%
    17:00 +7°C° 0.5 mm 16 mps 707 mmHg 75%
    18:00 +5°C° 0.2 mm 17 mps 707 mmHg 72%
    19:00 +3°C° 0.2 mm 17 mps 707 mmHg 68%
    20:00 +2°C° 0.2 mm 18 mps 707 mmHg 65%
    21:00 +3°C° 0.9 mm 17 mps 707 mmHg 65%
    22:00 +4°C° 0.9 mm 16 mps 707 mmHg 64%
    23:00 +5°C° 0.9 mm 15 mps 707 mmHg 63%

    Day after tomorrow, 19 January, Friday

    Time Temperature Precipitation Wind Pressure Humidity
    00:00 +4°C° 0.1 mm 15 mps 708 mmHg 64%
    01:00 +4°C° 0.1 mm 15 mps 709 mmHg 66%
    02:00 +4°C° 0.1 mm 15 mps 709 mmHg 67%
    03:00 +3°C° 0.1 mm 14 mps 710 mmHg 65%
    04:00 +3°C° 0.1 mm 14 mps 711 mmHg 64%
    05:00 +3°C° 0.1 mm 13 mps 711 mmHg 62%
    06:00 +3°C° 0 mm 13 mps 712 mmHg 62%
    07:00 +3°C° 0 mm 12 mps 713 mmHg 62%
    08:00 +3°C° 0 mm 12 mps 714 mmHg 63%
    09:00 +4°C° 0 mm 11 mps 715 mmHg 58%
    10:00 +6°C° 0 mm 11 mps 716 mmHg 54%
    11:00 +7°C° 0 mm 10 mps 716 mmHg 50%
    12:00 +7°C° 0 mm 10 mps 716 mmHg 50%
    13:00 +7°C° 0 mm 9 mps 717 mmHg 51%
    14:00 +8°C° 0 mm 9 mps 717 mmHg 51%
    15:00 +7°C° 0 mm 8 mps 717 mmHg 53%
    16:00 +6°C° 0 mm 7 mps 717 mmHg 55%
    17:00 +6°C° 0 mm 7 mps 718 mmHg 57%
    18:00 +5°C° 0 mm 6 mps 718 mmHg 57%
    19:00 +6°C° 0 mm 5 mps 719 mmHg 56%
    20:00 +6°C° 0 mm 4 mps 720 mmHg 56%
    21:00 +6°C° 0 mm 4 mps 720 mmHg 57%
    22:00 +7°C° 0 mm 3 mps 720 mmHg 58%
    23:00 +5°C° 0 mm 3 mps 720 mmHg 59%

    20 January, Saturday

    Time Temperature Precipitation Wind Pressure Humidity
    00:00 +5°C° 0 mm 3 mps 720 mmHg 62%
    01:00 +5°C° 0 mm 3 mps 720 mmHg 64%
    02:00 +5°C° 0 mm 3 mps 721 mmHg 66%
    03:00 +5°C° 0 mm 3 mps 721 mmHg 67%
    04:00 +5°C° 0 mm 3 mps 721 mmHg 68%
    05:00 +6°C° 0 mm 4 mps 721 mmHg 69%
    06:00 +6°C° 0 mm 4 mps 721 mmHg 71%
    07:00 +7°C° 0 mm 4 mps 722 mmHg 74%
    08:00 +8°C° 0 mm 4 mps 722 mmHg 77%
    09:00 +11°C° 0 mm 4 mps 722 mmHg 74%
    10:00 +12°C° 0 mm 4 mps 722 mmHg 71%
    11:00 +13°C° 0 mm 4 mps 723 mmHg 68%
    12:00 +14°C° 0 mm 5 mps 722 mmHg 66%
    13:00 +14°C° 0 mm 5 mps 722 mmHg 64%
    14:00 +14°C° 0 mm 5 mps 722 mmHg 63%
    15:00 +13°C° 0 mm 4 mps 722 mmHg 69%
    16:00 +12°C° 0 mm 4 mps 722 mmHg 75%
    17:00 +11°C° 0 mm 4 mps 722 mmHg 81%
    18:00 +10°C° 0 mm 3 mps 722 mmHg 83%
    19:00 +10°C° 0 mm 3 mps 723 mmHg 85%
    20:00 +9°C° 0 mm 3 mps 723 mmHg 87%
    21:00 +9°C° 0 mm 2 mps 723 mmHg 87%
    22:00 +9°C° 0 mm 2 mps 723 mmHg 87%
    23:00 +9°C° 0 mm 2 mps 723 mmHg 88%

    21 January, Sunday

    Time Temperature Precipitation Wind Pressure Humidity
    00:00 +9°C° 0 mm 2 mps 723 mmHg 87%
    01:00 +9°C° 0 mm 2 mps 722 mmHg 87%
    02:00 +9°C° 0 mm 2 mps 722 mmHg 87%
    03:00 +8°C° 0 mm 2 mps 722 mmHg 87%
    04:00 +8°C° 0 mm 2 mps 721 mmHg 88%
    05:00 +8°C° 0 mm 2 mps 721 mmHg 88%
    06:00 +8°C° 0 mm 2 mps 721 mmHg 86%
    07:00 +9°C° 0 mm 3 mps 721 mmHg 85%
    08:00 +9°C° 0 mm 3 mps 721 mmHg 84%
    09:00 +11°C° 0 mm 3 mps 721 mmHg 74%
    10:00 +12°C° 0 mm 4 mps 720 mmHg 65%
    11:00 +14°C° 0 mm 4 mps 720 mmHg 55%
    12:00 +14°C° 0 mm 5 mps 719 mmHg 54%
    13:00 +14°C° 0 mm 5 mps 719 mmHg 52%
    14:00 +15°C° 0 mm 5 mps 718 mmHg 51%
    15:00 +14°C° 0 mm 6 mps 717 mmHg 57%
    16:00 +12°C° 0 mm 7 mps 717 mmHg 64%
    17:00 +11°C° 0 mm 7 mps 716 mmHg 70%
    18:00 +10°C° 0 mm 8 mps 716 mmHg 73%
    19:00 +10°C° 0 mm 8 mps 716 mmHg 75%
    20:00 +8°C° 0 mm 9 mps 715 mmHg 77%
    21:00 +9°C° 0 mm 8 mps 715 mmHg 76%
    22:00 +9°C° 0 mm 8 mps 714 mmHg 75%
    23:00 +9°C° 0 mm 8 mps 714 mmHg 74%

    22 January, Monday

    Time Temperature Precipitation Wind Pressure Humidity
    00:00 +9°C° 0.1 mm 7 mps 713 mmHg 76%
    01:00 +9°C° 0.1 mm 7 mps 712 mmHg 77%
    02:00 +9°C° 0.1 mm 7 mps 712 mmHg 78%
    03:00 +9°C° 0.3 mm 6 mps 711 mmHg 80%
    04:00 +9°C° 0.3 mm 6 mps 711 mmHg 82%
    05:00 +9°C° 0.3 mm 5 mps 711 mmHg 84%
    06:00 +10°C° 0.2 mm 5 mps 711 mmHg 82%
    07:00 +10°C° 0.2 mm 5 mps 711 mmHg 81%
    08:00 +11°C° 0.2 mm 4 mps 711 mmHg 80%
    09:00 +13°C° 0.3 mm 5 mps 711 mmHg 72%
    10:00 +14°C° 0.3 mm 6 mps 711 mmHg 63%
    11:00 +15°C° 0.3 mm 6 mps 711 mmHg 55%
    12:00 +15°C° 0.7 mm 7 mps 711 mmHg 57%
    13:00 +13°C° 0.7 mm 8 mps 710 mmHg 60%
    14:00 +13°C° 0.7 mm 8 mps 709 mmHg 62%
    15:00 +12°C° 2.6 mm 8 mps 709 mmHg 72%
    16:00 +10°C° 2.6 mm 7 mps 709 mmHg 82%
    17:00 +9°C° 2.6 mm 7 mps 708 mmHg 92%
    18:00 +9°C° 1.3 mm 6 mps 708 mmHg 90%
    19:00 +9°C° 1.3 mm 6 mps 708 mmHg 88%
    20:00 +9°C° 1.3 mm 6 mps 708 mmHg 86%
    21:00 +9°C° 0.7 mm 6 mps 708 mmHg 86%
    22:00 +9°C° 0.7 mm 5 mps 708 mmHg 87%
    23:00 +9°C° 0.7 mm 5 mps 708 mmHg 87%
    Show more